Location: Aufkirchen
(47.9603°N, 11.3653°E)
Time: 00:31:17
(UTC+01:00)

Transit 2A Rocket - Pass Details

Date: 05 December 2020
Orbit: 592 x 911 km, 66.7° (Epoch: 20 January)

Event Time Altitude Azimuth Distance (km) Brightness Sun altitude
Rises 01:55:00 0° 237° (WSW) 3,483 - -56.3°
Reaches altitude 10° 01:57:43 10° 244° (WSW) 2,515 - -56.0°
Maximum altitude 02:03:11 41° 314° (NW) 1,190 - -55.3°
Drops below altitude 10° 02:08:19 10° 25° (NNE) 2,344 - -54.6°
Sets 02:10:46 0° 33° (NNE) 3,222 - -54.2°
